Stündliche Wetter Wargoszewo

Heute, 21 Oktober, Mittwoch

Zeit Temperatur Niederschläge Wind Luftdruck Luftfeuchtigkeit
00:00 +9°C° 0.2 mm 3 m/S 748 mmHg 84%
01:00 +8°C° 0 mm 4 m/S 748 mmHg 85%
02:00 +8°C° 0 mm 4 m/S 748 mmHg 87%
03:00 +9°C° 0 mm 3 m/S 747 mmHg 90%
04:00 +8°C° 0 mm 3 m/S 747 mmHg 92%
05:00 +9°C° 0.1 mm 3 m/S 747 mmHg 93%
06:00 +9°C° 0.1 mm 3 m/S 748 mmHg 94%
07:00 +9°C° 0 mm 3 m/S 748 mmHg 93%
08:00 +10°C° 0.7 mm 4 m/S 748 mmHg 93%
09:00 +10°C° 0.7 mm 4 m/S 748 mmHg 93%
10:00 +10°C° 0.7 mm 4 m/S 748 mmHg 93%
11:00 +10°C° 0.2 mm 4 m/S 748 mmHg 91%
12:00 +11°C° 0.2 mm 4 m/S 748 mmHg 89%
13:00 +10°C° 0 mm 5 m/S 747 mmHg 89%
14:00 +10°C° 0.1 mm 5 m/S 747 mmHg 88%
15:00 +9°C° 0.1 mm 5 m/S 747 mmHg 87%
16:00 +10°C° 0.1 mm 4 m/S 746 mmHg 87%
17:00 +9°C° 0 mm 5 m/S 746 mmHg 84%
18:00 +9°C° 0 mm 5 m/S 746 mmHg 82%
19:00 +9°C° 0 mm 5 m/S 746 mmHg 79%
20:00 +10°C° 0 mm 5 m/S 745 mmHg 79%
21:00 +10°C° 0 mm 5 m/S 745 mmHg 78%
22:00 +10°C° 0 mm 5 m/S 745 mmHg 78%
23:00 +12°C° 0 mm 5 m/S 745 mmHg 76%

Morgen, 22 Oktober, Donnerstag

Zeit Temperatur Niederschläge Wind Luftdruck Luftfeuchtigkeit
00:00 +11°C° 0 mm 6 m/S 745 mmHg 75%
01:00 +11°C° 0 mm 6 m/S 745 mmHg 74%
02:00 +11°C° 0 mm 6 m/S 745 mmHg 75%
03:00 +12°C° 0 mm 7 m/S 744 mmHg 76%
04:00 +12°C° 0 mm 7 m/S 744 mmHg 76%
05:00 +12°C° 0 mm 7 m/S 744 mmHg 78%
06:00 +12°C° 0 mm 7 m/S 745 mmHg 80%
07:00 +12°C° 0 mm 7 m/S 745 mmHg 82%
08:00 +13°C° 0 mm 8 m/S 745 mmHg 79%
09:00 +15°C° 0 mm 8 m/S 746 mmHg 76%
10:00 +15°C° 0 mm 8 m/S 747 mmHg 74%
11:00 +16°C° 0 mm 8 m/S 747 mmHg 72%
12:00 +16°C° 0 mm 7 m/S 748 mmHg 70%
13:00 +17°C° 0 mm 6 m/S 748 mmHg 68%
14:00 +16°C° 0 mm 5 m/S 748 mmHg 70%
15:00 +16°C° 0 mm 5 m/S 748 mmHg 73%
16:00 +15°C° 0 mm 4 m/S 748 mmHg 76%
17:00 +15°C° 0 mm 4 m/S 748 mmHg 77%
18:00 +14°C° 0 mm 4 m/S 748 mmHg 79%
19:00 +13°C° 0 mm 4 m/S 748 mmHg 81%
20:00 +13°C° 0 mm 4 m/S 748 mmHg 82%
21:00 +13°C° 0 mm 5 m/S 748 mmHg 83%
22:00 +13°C° 0 mm 5 m/S 748 mmHg 85%
23:00 +13°C° 0.2 mm 5 m/S 747 mmHg 85%

übermorgen, 23 Oktober, Freitag

Zeit Temperatur Niederschläge Wind Luftdruck Luftfeuchtigkeit
00:00 +13°C° 0.2 mm 5 m/S 747 mmHg 86%
01:00 +13°C° 0.2 mm 5 m/S 747 mmHg 87%
02:00 +13°C° 0.1 mm 5 m/S 747 mmHg 88%
03:00 +13°C° 0.1 mm 5 m/S 747 mmHg 89%
04:00 +13°C° 0.1 mm 4 m/S 746 mmHg 89%
05:00 +13°C° 0 mm 4 m/S 746 mmHg 90%
06:00 +12°C° 0 mm 4 m/S 746 mmHg 91%
07:00 +12°C° 0 mm 4 m/S 746 mmHg 92%
08:00 +12°C° 0 mm 4 m/S 747 mmHg 86%
09:00 +13°C° 0 mm 5 m/S 747 mmHg 79%
10:00 +14°C° 0 mm 5 m/S 747 mmHg 73%
11:00 +14°C° 0 mm 5 m/S 747 mmHg 71%
12:00 +14°C° 0 mm 5 m/S 747 mmHg 69%
13:00 +15°C° 0 mm 5 m/S 747 mmHg 67%
14:00 +14°C° 0 mm 4 m/S 747 mmHg 71%
15:00 +13°C° 0 mm 3 m/S 747 mmHg 74%
16:00 +12°C° 0 mm 3 m/S 747 mmHg 78%
17:00 +13°C° 0 mm 2 m/S 747 mmHg 82%
18:00 +12°C° 0 mm 2 m/S 747 mmHg 85%
19:00 +11°C° 0 mm 1 m/S 747 mmHg 89%
20:00 +11°C° 0 mm 1 m/S 747 mmHg 90%
21:00 +11°C° 0 mm 1 m/S 747 mmHg 90%
22:00 +11°C° 0 mm 1 m/S 747 mmHg 91%
23:00 +11°C° 0 mm 1 m/S 747 mmHg 91%

24 Oktober, Samstag

Zeit Temperatur Niederschläge Wind Luftdruck Luftfeuchtigkeit
00:00 +10°C° 0 mm 1 m/S 747 mmHg 91%
01:00 +10°C° 0 mm 1 m/S 747 mmHg 92%
02:00 +9°C° 0 mm 2 m/S 747 mmHg 92%
03:00 +9°C° 0 mm 2 m/S 746 mmHg 93%
04:00 +9°C° 0 mm 2 m/S 746 mmHg 94%
05:00 +9°C° 0.2 mm 2 m/S 746 mmHg 95%
06:00 +10°C° 0.2 mm 3 m/S 746 mmHg 96%
07:00 +10°C° 0.2 mm 3 m/S 745 mmHg 96%
08:00 +11°C° 0.2 mm 4 m/S 746 mmHg 93%
09:00 +11°C° 0.2 mm 4 m/S 746 mmHg 90%
10:00 +12°C° 0.2 mm 5 m/S 746 mmHg 87%
11:00 +12°C° 0.3 mm 5 m/S 746 mmHg 83%
12:00 +11°C° 0.3 mm 6 m/S 747 mmHg 80%
13:00 +11°C° 0.3 mm 7 m/S 747 mmHg 77%
14:00 +11°C° 0.1 mm 7 m/S 748 mmHg 77%
15:00 +10°C° 0.1 mm 6 m/S 748 mmHg 77%
16:00 +10°C° 0.1 mm 6 m/S 748 mmHg 77%
17:00 +9°C° 0 mm 5 m/S 749 mmHg 79%
18:00 +8°C° 0 mm 4 m/S 749 mmHg 82%
19:00 +8°C° 0 mm 4 m/S 750 mmHg 85%
20:00 +8°C° 0 mm 3 m/S 750 mmHg 87%
21:00 +8°C° 0 mm 3 m/S 750 mmHg 89%
22:00 +8°C° 0 mm 3 m/S 751 mmHg 91%
23:00 +7°C° 0 mm 3 m/S 751 mmHg 91%

25 Oktober, Sonntag

Zeit Temperatur Niederschläge Wind Luftdruck Luftfeuchtigkeit
00:00 +7°C° 0 mm 3 m/S 751 mmHg 92%
01:00 +7°C° 0 mm 2 m/S 751 mmHg 93%
02:00 +6°C° 0 mm 2 m/S 751 mmHg 92%
03:00 +6°C° 0 mm 2 m/S 751 mmHg 92%
04:00 +6°C° 0 mm 2 m/S 751 mmHg 92%
05:00 +6°C° 0 mm 2 m/S 751 mmHg 91%
06:00 +5°C° 0 mm 3 m/S 751 mmHg 90%
07:00 +5°C° 0 mm 3 m/S 751 mmHg 90%
08:00 +7°C° 0 mm 3 m/S 751 mmHg 85%
09:00 +9°C° 0 mm 3 m/S 751 mmHg 81%
10:00 +10°C° 0 mm 4 m/S 751 mmHg 77%
11:00 +11°C° 0 mm 4 m/S 751 mmHg 75%
12:00 +12°C° 0 mm 4 m/S 751 mmHg 73%
13:00 +13°C° 0 mm 4 m/S 750 mmHg 71%
14:00 +12°C° 0 mm 4 m/S 750 mmHg 74%
15:00 +12°C° 0 mm 3 m/S 750 mmHg 77%
16:00 +11°C° 0 mm 3 m/S 750 mmHg 80%
17:00 +11°C° 0 mm 3 m/S 750 mmHg 82%
18:00 +11°C° 0 mm 3 m/S 750 mmHg 84%
19:00 +10°C° 0 mm 4 m/S 750 mmHg 86%
20:00 +10°C° 0 mm 4 m/S 750 mmHg 86%
21:00 +10°C° 0 mm 4 m/S 750 mmHg 86%
22:00 +10°C° 0 mm 4 m/S 750 mmHg 85%
23:00 +10°C° 0 mm 4 m/S 750 mmHg 85%

26 Oktober, Montag

Zeit Temperatur Niederschläge Wind Luftdruck Luftfeuchtigkeit
00:00 +10°C° 0 mm 4 m/S 750 mmHg 86%
01:00 +8°C° 0 mm 4 m/S 749 mmHg 86%
02:00 +8°C° 0 mm 4 m/S 749 mmHg 87%
03:00 +8°C° 0 mm 4 m/S 749 mmHg 88%
04:00 +7°C° 0 mm 4 m/S 749 mmHg 89%
05:00 +7°C° 0 mm 4 m/S 749 mmHg 89%
06:00 +7°C° 0 mm 4 m/S 749 mmHg 89%
07:00 +7°C° 0 mm 4 m/S 750 mmHg 88%
08:00 +8°C° 0 mm 4 m/S 750 mmHg 84%
09:00 +10°C° 0 mm 4 m/S 750 mmHg 79%
10:00 +11°C° 0 mm 4 m/S 750 mmHg 74%
11:00 +12°C° 0 mm 4 m/S 750 mmHg 71%
12:00 +13°C° 0 mm 4 m/S 749 mmHg 67%
13:00 +14°C° 0 mm 4 m/S 749 mmHg 64%
14:00 +14°C° 0 mm 4 m/S 749 mmHg 66%
15:00 +13°C° 0 mm 4 m/S 749 mmHg 68%
16:00 +12°C° 0 mm 3 m/S 749 mmHg 70%
17:00 +11°C° 0 mm 3 m/S 749 mmHg 75%
18:00 +11°C° 0 mm 3 m/S 749 mmHg 80%
19:00 +10°C° 0 mm 3 m/S 749 mmHg 84%
20:00 +10°C° 0 mm 3 m/S 749 mmHg 86%
21:00 +9°C° 0 mm 3 m/S 749 mmHg 88%
22:00 +9°C° 0 mm 3 m/S 749 mmHg 90%
23:00 +9°C° 0 mm 3 m/S 749 mmHg 90%

27 Oktober, Dienstag

Zeit Temperatur Niederschläge Wind Luftdruck Luftfeuchtigkeit
00:00 +9°C° 0 mm 3 m/S 749 mmHg 90%
01:00 +9°C° 0 mm 3 m/S 749 mmHg 90%
02:00 +9°C° 0 mm 3 m/S 749 mmHg 91%
03:00 +8°C° 0 mm 3 m/S 749 mmHg 92%
04:00 +8°C° 0 mm 3 m/S 749 mmHg 92%
05:00 +8°C° 0 mm 3 m/S 749 mmHg 91%
06:00 +9°C° 0 mm 3 m/S 750 mmHg 90%
07:00 +9°C° 0 mm 3 m/S 750 mmHg 90%
08:00 +10°C° 0 mm 2 m/S 750 mmHg 87%
09:00 +10°C° 0 mm 2 m/S 750 mmHg 84%
10:00 +12°C° 0 mm 2 m/S 750 mmHg 82%
11:00 +12°C° 0 mm 2 m/S 751 mmHg 81%
12:00 +12°C° 0 mm 2 m/S 751 mmHg 81%
13:00 +13°C° 0 mm 2 m/S 751 mmHg 81%
14:00 +12°C° 0 mm 2 m/S 751 mmHg 82%
15:00 +12°C° 0 mm 2 m/S 751 mmHg 83%
16:00 +12°C° 0 mm 2 m/S 751 mmHg 85%
17:00 +12°C° 0 mm 2 m/S 751 mmHg 86%
18:00 +12°C° 0 mm 1 m/S 751 mmHg 87%
19:00 +12°C° 0 mm 1 m/S 752 mmHg 89%
20:00 +11°C° 0 mm 1 m/S 752 mmHg 90%
21:00 +11°C° 0 mm 1 m/S 752 mmHg 91%
22:00 +11°C° 0 mm 1 m/S 752 mmHg 92%
23:00 +11°C° 0.1 mm 1 m/S 753 mmHg 92%
Mehr zeigen

Wir brauchen deine Erlaubnis

Meteoprog und unser Service Anbieter werden persönliche Daten aufbewahren, so wie Cookies, Geräte Bezeichnung oder ähnliche Technologien von deinem Gerät und Prozess, so wie Persönliche Daten Inhalte und Werbungen, genauso wie social Media und den Verkehr zu analysieren.

  • Aufbewahrung und/oder Zugang zu deiner Geräte Informationen.

    Cookies, Geräte Bezeichnung oder andere Informationen, können aufbewahrt oder Zugang zu deinem Gerät erhalten, für den Grund, der oben angegeben wird.

  • Personalisierte Werbung und Inhalte, Messungen, Einblick in das Publikum und Produkt Entwicklung.

    Werbungen und Inhalte können personalisiert werden, basierend auf ein Profil. Mehr Daten können besser personalisierte Werbungen und Inhalte hinzufügen. Werbung und Inhalte können gezeigt und gemessen werden. Einblicke über das Publikum, welche die Werbung gesehen haben und den Inhalt, können abgeleitet werden. So wie Daten können genutzt werden, um es zu verbessern oder die Benutzer Erfahrung zu verbessern das System und die Software.

Wenn du “Ich stimme zu” klickst, erlaubst du uns, die Cookies zu benutzen die Geräte Bezeichnung, den Web oder ähnliche Technologien zu benutzen. Deine Settings, können in deinem Gerät bei deinem Browser geändert werden.

Für den bestimmten Zweck, berechtigten Interessen beruhen darauf, mehr als auf den Inhalt. Du kannst mehr darüber in unseren Privaten und Cookie Politik lesen.